[[{"header":{"parameterUnit":"m.s-1","parameterCategory":1,"la1":30.2991,"la2":30.254,"lo1":-89.0895,"lo2":-89.0444,"dy":0.0017,"dx":0.0017,"nx":28,"ny":28,"refTime":"2025-03-08T03:00:00:Z","depth":0,"parameterNumber":2,"parameterNumberName":"U-component_of_WINDS"},"data":[0,0,0,0,0,0,0,0,0,0,0,0,0,0,0,0,0,0,0,0,0,0,0,0,0,0,0,0,0,0,0,0,0,0,0,0,0,0,0,0,0,0,0,0,0,0,0,0,0,0,0,0,0,0,0,0,0,0,-2.0772,-2.0772,0,-2.0798,-2.0798,-2.0798,-2.0735,-2.0733,-2.0731,-2.0729,-2.0756,-2.0758,-2.0761,0,0,0,0,0,0,0,0,0,0,0,0,0,-2.0667,-2.0669,-2.0772,-2.0772,-2.0772,-2.0797,-2.0798,-2.0798,-2.0735,-2.0732,-2.073,-2.0728,-2.0755,-2.0758,-2.0761,0,0,0,0,0,0,0,0,0,0,0,0,0,-2.0705,-2.067,-2.0772,-2.0744,-2.0742,-2.0797,-2.0798,-2.0798,-2.0735,-2.0732,-2.0729,-2.0727,-2.0754,-2.0758,-2.0762,-2.0846,0,0,-2.0773,-2.0775,0,0,0,0,0,0,0,0,-2.0703,-2.0709,-2.0748,-2.0746,-2.0743,-2.076,-2.0771,-2.0814,-2.0736,-2.0738,-2.0729,-2.0725,-2.076,-2.0763,-2.0774,-2.0847,-2.0848,-2.0774,-2.0776,-2.0778,-2.0779,0,0,0,0,0,0,0,-2.07,-2.0707,-2.0782,-2.0748,-2.0746,-2.073,-2.0732,-2.0779,-2.0765,-2.0737,-2.0733,-2.0737,-2.0758,-2.0771,-2.0774,-2.0849,-2.0774,-2.0777,-2.0779,-2.0781,-2.0991,-2.0994,0,0,0,0,0,0,-2.0701,-2.0705,-2.0781,-2.0783,-2.0715,-2.0734,-2.0736,-2.0758,-2.0765,-2.0763,-2.0739,-2.0734,-2.0766,-2.077,-2.0775,-2.0874,-2.0778,-2.0781,-2.0784,-2.0988,-2.0992,-2.0995,0,0,0,0,0,0,-2.0699,-2.0709,-2.078,-2.0743,-2.0751,-2.0739,-2.0763,-2.076,-2.0772,-2.0766,-2.0763,-2.0755,-2.0763,-2.077,-2.0828,-2.0874,-2.0783,-2.0787,-2.0984,-2.0989,-2.0993,-2.1073,0,0,0,0,0,0,-2.0696,-2.0708,-2.074,-2.0744,-2.0753,-2.0833,-2.0766,-2.0762,-2.0779,-2.0772,-2.078,-2.0778,-2.0761,-2.0823,-2.0832,-2.0878,-2.079,-2.098,-2.0986,-2.0992,-2.1066,-2.108,-2.1091,0,0,0,0,0,-2.0693,-2.0762,-2.0742,-2.0752,-2.0793,-2.0836,-2.0841,-2.082,-2.0783,-2.0815,-2.0811,-2.0778,-2.0867,-2.083,-2.084,-2.0887,-2.0977,-2.0984,-2.0991,-2.106,-2.1077,-2.1091,0,0,0,0,0,0,-2.0765,-2.0762,-2.074,-2.0813,-2.0825,-2.0825,-2.0865,-2.0839,-2.0862,-2.0855,-2.0827,-2.083,-2.0894,-2.0896,-2.0854,-2.0968,-2.0916,-2.0925,-2.0965,-2.098,-2.0993,-2.0991,-2.0793,0,0,0,0,0,-2.0789,-2.0824,-2.082,-2.0884,-2.0891,-2.0877,-2.0895,-2.0878,-2.089,-2.0895,-2.0895,-2.0908,-2.0938,-2.0959,-2.0987,-2.1065,-2.1066,-2.1103,-2.1115,-2.1126,-2.1135,-2.1176,-2.1192,-2.1019,-2.1019,-2.1019,0,0,-2.0839,-2.0842,-2.0866,-2.0898,-2.0906,-2.0943,-2.0882,-2.0924,-2.0951,-2.0901,-2.0957,-2.0957,-2.0969,-2.1038,-2.1068,-2.1042,-2.1182,-2.1135,-2.1144,-2.1147,-2.1185,-2.1201,-2.1216,-2.1024,-2.1023,-2.1022,0,0,-2.095,-2.0956,-2.101,-2.1018,-2.103,-2.102,-2.1033,-2.1037,-2.1035,-2.109,-2.1053,-2.1085,-2.1139,-2.1149,-2.1161,-2.1275,-2.1245,-2.1284,-2.1351,-2.1391,-2.1405,-2.1417,-2.1457,-2.1472,-2.1293,-2.1293,-2.1293,0,-2.1011,-2.1066,-2.1041,-2.1085,-2.11,-2.1056,-2.111,-2.1119,-2.114,-2.1152,-2.1121,-2.1187,-2.1192,-2.1263,-2.129,-2.1302,-2.1315,-2.1284,-2.1405,-2.1417,-2.1427,-2.1466,-2.1481,-2.1298,-2.1297,-2.1297,-2.1296,0,-2.114,-2.1178,-2.122,-2.1241,-2.1261,-2.131,-2.1292,-2.1315,-2.1295,-2.1289,-2.1345,-2.1349,-2.1377,-2.1392,-2.1374,-2.146,-2.1443,-2.1409,-2.1356,-2.1449,-2.1485,-2.1499,-2.1305,-2.1303,-2.1302,-2.13,0,0,-2.1299,-2.1304,-2.132,-2.1328,-2.1337,-2.1366,-2.1413,-2.144,-2.146,-2.1475,-2.1513,-2.1559,-2.1528,-2.1542,-2.1524,-2.1559,-2.1648,-2.1521,-2.1521,-2.1545,-2.1743,-2.1768,-2.1786,-2.1628,-2.1631,-2.1633,-2.1742,0,-2.1408,-2.1488,-2.1467,-2.1546,-2.1581,-2.1538,-2.1579,-2.1589,-2.1583,-2.1612,-2.1605,-2.1638,-2.1594,-2.1603,-2.1635,-2.1631,-2.1688,-2.1622,-2.1664,-2.1666,-2.1663,-2.1804,-2.1832,-2.1934,-2.1755,-2.1758,-2.1759,0,-2.1547,-2.1567,-2.1651,-2.1653,-2.1667,-2.1704,-2.1726,-2.1754,-2.1764,-2.1757,-2.1772,-2.1747,-2.1792,-2.1738,-2.18,-2.1756,-2.1772,-2.1772,-2.1775,-2.1779,-2.1719,-2.1812,-2.1966,-2.1982,-2.1781,-2.1779,-2.1778,0,-2.1654,-2.1702,-2.1758,-2.1767,-2.1771,-2.1798,-2.1801,-2.1808,-2.1825,-2.1844,-2.1855,-2.188,-2.1893,-2.1913,-2.1894,-2.1857,-2.196,-2.1904,-2.1955,-2.1956,-2.198,-2.1979,-2.2139,-2.1989,-2.1989,-2.1989,-2.1988,0,-2.1779,-2.1832,-2.1806,-2.1841,-2.1898,-2.1872,-2.193,-2.1928,-2.1934,-2.1967,-2.1932,-2.1964,-2.1937,-2.1967,-2.1953,-2.2006,-2.2012,-2.2008,-2.2004,-2.2012,-2.2013,-2.2022,-2.2015,-2.1993,-2.1992,-2.1991,-2.199,0,-2.191,-2.1894,-2.1952,-2.1951,-2.1952,-2.1994,-2.1993,-2.2025,-2.2016,-2.2059,-2.2067,-2.2053,-2.2086,-2.2069,-2.2103,-2.2094,-2.2163,-2.2149,-2.216,-2.2156,-2.2209,-2.2204,-2.2382,-2.2403,-2.2239,-2.2241,-2.2242,0,-2.1991,-2.203,-2.2033,-2.2052,-2.2058,-2.209,-2.2106,-2.2082,-2.2101,-2.2115,-2.2145,-2.2174,-2.2197,-2.2251,-2.2244,-2.2269,-2.2256,-2.2316,-2.226,-2.2266,-2.2257,-2.2255,-2.2259,-2.2328,-2.233,-2.2331,-2.2333,0,-2.2136,-2.2127,-2.2152,-2.2176,-2.2197,-2.2214,-2.2228,-2.2246,-2.2221,-2.2245,-2.2277,-2.2295,-2.2329,-2.2358,-2.238,-2.2383,-2.2354,-2.235,-2.2364,-2.2372,-2.2377,-2.2375,-2.2191,-2.2347,-2.2345,-2.2344,-2.2344,-2.2343,-2.2245,-2.2277,-2.2284,-2.2314,-2.2322,-2.2335,-2.2365,-2.2359,-2.2386,-2.2412,-2.2395,-2.2434,-2.2441,-2.2468,-2.2474,-2.2504,-2.248,-2.2499,-2.2504,-2.2509,-2.2516,-2.2372,-2.2508,-2.2507,-2.2507,-2.2506,-2.2506,0,-2.2389,-2.239,-2.2418,-2.2438,-2.2462,-2.2431,-2.2445,-2.2466,-2.2501,-2.251,-2.2532,-2.257,-2.2598,-2.2593,-2.2618,-2.2643,-2.263,-2.265,-2.2649,-2.265,-2.2536,-2.2522,-2.266,-2.266,-2.266,-2.266,-2.266,-2.266,-2.2466,-2.252,-2.2511,-2.2567,-2.2569,-2.2606,-2.2616,-2.2628,-2.2636,-2.2679,-2.2702,-2.2698,-2.2702,-2.2727,-2.2751,-2.2749,-2.276,-2.2785,-2.2778,-2.2673,-2.2658,-2.2643,-2.263,-2.2788,-2.2788,-2.2889,-2.289,-2.289]},{"header":{"parameterUnit":"m.s-1","parameterCategory":1,"la1":30.2991,"la2":30.254,"lo1":-89.0895,"lo2":-89.0444,"dy":0.0017,"dx":0.0017,"nx":28,"ny":28,"refTime":"2025-03-08T03:00:00:Z","depth":0,"parameterNumber":3,"parameterNumberName":"V-component_of_WINDS"},"data":[0,0,0,0,0,0,0,0,0,0,0,0,0,0,0,0,0,0,0,0,0,0,0,0,0,0,0,0,0,0,0,0,0,0,0,0,0,0,0,0,0,0,0,0,0,0,0,0,0,0,0,0,0,0,0,0,0,0,-1.2838,-1.2838,0,-1.2829,-1.2828,-1.2828,-1.282,-1.282,-1.282,-1.282,-1.2811,-1.2811,-1.281,0,0,0,0,0,0,0,0,0,0,0,0,0,-1.2847,-1.2847,-1.2838,-1.2838,-1.2837,-1.2829,-1.2828,-1.2828,-1.282,-1.282,-1.282,-1.282,-1.2811,-1.2811,-1.281,0,0,0,0,0,0,0,0,0,0,0,0,0,-1.2841,-1.2847,-1.2838,-1.2832,-1.2832,-1.2829,-1.2828,-1.2828,-1.282,-1.282,-1.282,-1.282,-1.2811,-1.2811,-1.281,-1.2812,0,0,-1.281,-1.281,0,0,0,0,0,0,0,0,-1.2841,-1.2841,-1.2833,-1.2833,-1.2832,-1.2825,-1.2828,-1.2823,-1.2821,-1.2825,-1.282,-1.282,-1.2816,-1.2815,-1.2814,-1.2811,-1.2811,-1.281,-1.2809,-1.2809,-1.2809,0,0,0,0,0,0,0,-1.2842,-1.2841,-1.2834,-1.2833,-1.2833,-1.283,-1.2829,-1.2827,-1.2821,-1.2824,-1.2824,-1.2823,-1.2815,-1.2814,-1.2813,-1.2811,-1.281,-1.2809,-1.2809,-1.2809,-1.2807,-1.2807,0,0,0,0,0,0,-1.2843,-1.2841,-1.2834,-1.2834,-1.2837,-1.283,-1.2829,-1.2828,-1.2821,-1.282,-1.2823,-1.2823,-1.2814,-1.2814,-1.2813,-1.2813,-1.2809,-1.2809,-1.2809,-1.2807,-1.2807,-1.2807,0,0,0,0,0,0,-1.2843,-1.2843,-1.2835,-1.2837,-1.2836,-1.283,-1.2829,-1.2828,-1.2826,-1.282,-1.2819,-1.2823,-1.2814,-1.2813,-1.2812,-1.2813,-1.2809,-1.2809,-1.2807,-1.2807,-1.2807,-1.2814,0,0,0,0,0,0,-1.2844,-1.2843,-1.2844,-1.2838,-1.2836,-1.2834,-1.2829,-1.2828,-1.2826,-1.2825,-1.2819,-1.2818,-1.2814,-1.2812,-1.2811,-1.2812,-1.2809,-1.2807,-1.2807,-1.2807,-1.2814,-1.2814,-1.2815,0,0,0,0,0,-1.2844,-1.2846,-1.2844,-1.2843,-1.2837,-1.2834,-1.2833,-1.2828,-1.2826,-1.2826,-1.2822,-1.2819,-1.2813,-1.2812,-1.2811,-1.2812,-1.2807,-1.2807,-1.2807,-1.2813,-1.2814,-1.2815,0,0,0,0,0,0,-1.2853,-1.2845,-1.2842,-1.2843,-1.2839,-1.2833,-1.2833,-1.283,-1.2827,-1.2826,-1.282,-1.2819,-1.2817,-1.2814,-1.2814,-1.2812,-1.2809,-1.2809,-1.2814,-1.2815,-1.2815,-1.2816,-1.2808,0,0,0,0,0,-1.2855,-1.2853,-1.2846,-1.2847,-1.2845,-1.284,-1.2838,-1.2834,-1.283,-1.2829,-1.2825,-1.2821,-1.2818,-1.2816,-1.2813,-1.2813,-1.2811,-1.2813,-1.2814,-1.2814,-1.2814,-1.2813,-1.2813,-1.2808,-1.2808,-1.2808,0,0,-1.2859,-1.2854,-1.2854,-1.2849,-1.2846,-1.2844,-1.2838,-1.2837,-1.2835,-1.2829,-1.2827,-1.2823,-1.2818,-1.2817,-1.2816,-1.2815,-1.2815,-1.2814,-1.2815,-1.2815,-1.2813,-1.2814,-1.2814,-1.2808,-1.2808,-1.2808,0,0,-1.2865,-1.2862,-1.2861,-1.2858,-1.2853,-1.2849,-1.2849,-1.2843,-1.284,-1.2838,-1.2832,-1.283,-1.2826,-1.2822,-1.282,-1.2823,-1.2819,-1.2822,-1.2825,-1.2824,-1.2824,-1.2825,-1.2825,-1.2825,-1.2822,-1.2822,-1.2822,0,-1.287,-1.2867,-1.2862,-1.286,-1.2858,-1.2851,-1.2851,-1.2847,-1.2842,-1.284,-1.2838,-1.2831,-1.2828,-1.2825,-1.2825,-1.2824,-1.2823,-1.2823,-1.2825,-1.2825,-1.2825,-1.2826,-1.2826,-1.2822,-1.2822,-1.2822,-1.2822,0,-1.2874,-1.2872,-1.2872,-1.2867,-1.2864,-1.2863,-1.2857,-1.2855,-1.2851,-1.2847,-1.2844,-1.2839,-1.2834,-1.2833,-1.283,-1.283,-1.2829,-1.2826,-1.2823,-1.2826,-1.2826,-1.2827,-1.2823,-1.2823,-1.2823,-1.2822,0,0,-1.2887,-1.2877,-1.2877,-1.2874,-1.2867,-1.2865,-1.2863,-1.2858,-1.2856,-1.2852,-1.285,-1.2846,-1.2842,-1.284,-1.2835,-1.2834,-1.2836,-1.2831,-1.2831,-1.2832,-1.2834,-1.2836,-1.2837,-1.2833,-1.2833,-1.2833,-1.2835,0,-1.2891,-1.2888,-1.2882,-1.288,-1.2877,-1.2871,-1.2869,-1.2864,-1.286,-1.2856,-1.2852,-1.2848,-1.2845,-1.2843,-1.2841,-1.2836,-1.2836,-1.2836,-1.2831,-1.2831,-1.2832,-1.2837,-1.284,-1.2841,-1.2835,-1.2835,-1.2835,0,-1.2897,-1.2893,-1.289,-1.2883,-1.2881,-1.288,-1.2874,-1.2872,-1.2866,-1.2862,-1.2859,-1.2854,-1.2851,-1.2848,-1.2843,-1.2842,-1.284,-1.2837,-1.2837,-1.2836,-1.2833,-1.2836,-1.2842,-1.2842,-1.2835,-1.2835,-1.2835,0,-1.2905,-1.2899,-1.2897,-1.2894,-1.2885,-1.2884,-1.288,-1.2874,-1.2871,-1.2866,-1.2864,-1.2859,-1.2856,-1.2852,-1.2846,-1.2844,-1.2841,-1.2838,-1.2838,-1.2838,-1.2838,-1.2838,-1.2843,-1.2836,-1.2836,-1.2836,-1.2836,0,-1.2911,-1.291,-1.29,-1.2899,-1.2897,-1.289,-1.2888,-1.2883,-1.2877,-1.2874,-1.2868,-1.2865,-1.2857,-1.2853,-1.2848,-1.2844,-1.2843,-1.284,-1.2839,-1.2841,-1.2841,-1.2839,-1.2838,-1.2836,-1.2836,-1.2836,-1.2836,0,-1.2921,-1.2914,-1.2911,-1.2902,-1.29,-1.2899,-1.2891,-1.2889,-1.2884,-1.288,-1.2879,-1.2871,-1.2866,-1.2859,-1.2851,-1.2848,-1.2845,-1.2843,-1.2847,-1.2846,-1.2846,-1.2846,-1.285,-1.2849,-1.2844,-1.2844,-1.2844,0,-1.2925,-1.2924,-1.2915,-1.2912,-1.2909,-1.2905,-1.2901,-1.2894,-1.2891,-1.2883,-1.2882,-1.2876,-1.2871,-1.2863,-1.2856,-1.285,-1.2848,-1.2849,-1.2847,-1.2849,-1.2847,-1.2847,-1.2847,-1.285,-1.285,-1.285,-1.285,0,-1.2933,-1.293,-1.2925,-1.2919,-1.2916,-1.2911,-1.2905,-1.2904,-1.2895,-1.2891,-1.2886,-1.2882,-1.2874,-1.2868,-1.2861,-1.2857,-1.2852,-1.2851,-1.2851,-1.2853,-1.2855,-1.2853,-1.2848,-1.2851,-1.2851,-1.2851,-1.2851,-1.2851,-1.294,-1.2938,-1.2931,-1.2926,-1.2921,-1.2916,-1.2913,-1.2907,-1.2903,-1.2896,-1.2891,-1.2886,-1.2878,-1.2868,-1.2864,-1.2859,-1.2857,-1.2857,-1.2857,-1.2857,-1.2857,-1.2856,-1.2858,-1.2858,-1.2858,-1.2858,-1.2858,0,-1.2947,-1.2942,-1.2938,-1.293,-1.2926,-1.2921,-1.2915,-1.2911,-1.2907,-1.29,-1.2895,-1.2888,-1.2882,-1.2874,-1.2868,-1.2865,-1.2863,-1.2864,-1.2864,-1.2862,-1.286,-1.286,-1.2866,-1.2866,-1.2866,-1.2866,-1.2866,-1.2866,-1.2951,-1.2947,-1.2942,-1.2936,-1.293,-1.2925,-1.2921,-1.2916,-1.2911,-1.2903,-1.2898,-1.2893,-1.2886,-1.2878,-1.2872,-1.287,-1.2868,-1.2869,-1.2866,-1.2864,-1.2863,-1.2862,-1.2863,-1.2869,-1.2869,-1.2869,-1.2869,-1.2869]}]]